Date String (YYYY-MM-DD hh:mm:ss) UTC,Instrument flags,Ambient pressure (hPa),Sample flow (lpm),Bypass flow (lpm),Sample temperature (°C),Ambient temperature (°C),ASC tube jacket temperature (°C),LED temperature (°C),Box temperature (°C),Sample RH (%),Span deviation,Mass concentration (μg/m³),Mass concentration (μg/m³),Mass concentration (μg/m³)
DateTimeUTC,F1_M11,P_M11,Q1_M11,Q2_M11,T1_M11,T2_M11,T3_M11,T4_M11,T5_M11,U1_M11,ZSPAN_M11,X0_M11,X2_M11,X1_M11
2022-06-20 07:00:00,,0823.4,5.01,0.00,29.5,28.5,00.0,38.3,31.5,17.8,0000.0,0007.59,0003.26,0002.24
2022-06-20 07:01:00,,0823.4,5.00,0.00,29.6,28.6,00.0,38.3,31.5,17.8,0000.0,0007.75,0003.27,0002.23
2022-06-20 07:02:00,,0823.4,5.00,0.00,29.6,28.6,00.0,38.3,31.5,17.7,0000.0,0007.88,0003.28,0002.22
2022-06-20 07:03:00,,0823.3,5.00,0.00,29.6,28.7,00.0,38.4,31.6,17.7,0000.0,0007.86,0003.26,0002.21
2022-06-20 07:04:00,,0823.4,4.99,0.00,29.6,28.7,00.0,38.4,31.6,17.7,0000.0,0007.97,0003.26,0002.23
2022-06-20 07:05:00,,0823.4,5.00,0.00,29.7,28.8,00.0,38.4,31.6,17.6,0000.0,0008.00,0003.28,0002.23
2022-06-20 07:06:00,,0823.4,5.01,0.00,29.7,28.8,00.0,38.4,31.7,17.6,0000.0,0007.95,0003.26,0002.22
2022-06-20 07:07:00,,0823.4,5.00,0.00,29.7,28.8,00.0,38.4,31.7,17.6,0000.0,0007.81,0003.27,0002.23
2022-06-20 07:08:00,,0823.4,5.00,0.00,29.7,28.1,00.0,38.4,31.5,17.6,0000.0,0007.05,0003.27,0002.25
2022-06-20 07:09:00,,0823.3,5.00,0.00,29.6,27.5,00.0,38.3,31.3,17.7,0000.0,0007.45,0003.30,0002.26
2022-06-20 07:10:00,,0823.3,5.00,0.00,29.6,27.4,00.0,38.3,31.3,17.7,0000.0,0007.63,0003.31,0002.27
2022-06-20 07:11:00,,0823.3,5.00,0.00,29.5,27.4,00.0,38.3,31.2,17.8,0000.0,0007.89,0003.31,0002.27
2022-06-20 07:12:00,,0823.4,5.00,0.00,29.5,27.5,00.0,38.3,31.2,17.8,0000.0,0007.70,0003.29,0002.26
2022-06-20 07:13:00,,0823.4,5.01,0.00,29.5,27.7,00.0,38.3,31.3,17.8,0000.0,0007.57,0003.31,0002.27
2022-06-20 07:14:00,,0823.5,5.01,0.00,29.5,27.8,00.0,38.3,31.3,17.9,0000.0,0007.47,0003.32,0002.28
2022-06-20 07:15:00,,0823.5,5.00,0.00,29.5,28.0,00.0,38.3,31.3,17.9,0000.0,0007.33,0003.34,0002.29
2022-06-20 07:16:00,,0823.5,4.98,0.00,29.5,28.1,00.0,38.3,31.3,18.0,0000.0,0007.33,0003.36,0002.28
2022-06-20 07:17:00,,0823.6,5.00,0.00,29.5,28.2,00.0,38.3,31.4,18.0,0000.0,0007.34,0003.35,0002.28
2022-06-20 07:18:00,,0823.6,5.00,0.00,29.5,28.3,00.0,38.3,31.4,18.0,0000.0,0007.40,0003.35,0002.28
2022-06-20 07:19:00,,0823.6,5.00,0.00,29.5,28.4,00.0,38.3,31.4,18.1,0000.0,0007.38,0003.31,0002.25
2022-06-20 07:20:00,,0823.6,5.01,0.00,29.5,28.5,00.0,38.3,31.5,18.0,0000.0,0006.76,0003.26,0002.25
2022-06-20 07:21:00,,0823.6,5.01,0.00,29.6,28.5,00.0,38.3,31.5,18.0,0000.0,0006.44,0003.25,0002.24
2022-06-20 07:22:00,,0823.6,5.00,0.00,29.6,28.6,00.0,38.4,31.5,18.1,0000.0,0005.70,0003.22,0002.24
2022-06-20 07:23:00,,0823.6,5.00,0.00,29.6,28.7,00.0,38.4,31.6,18.1,0000.0,0005.78,0003.23,0002.25
2022-06-20 07:24:00,,0823.5,5.00,0.00,29.6,28.7,00.0,38.4,31.6,18.0,0000.0,0005.76,0003.19,0002.25
2022-06-20 07:25:00,,0823.4,4.98,0.00,29.7,28.8,00.0,38.4,31.6,18.0,0000.0,0005.81,0003.17,0002.25
2022-06-20 07:26:00,,0823.4,5.01,0.00,29.7,28.8,00.0,38.4,31.6,18.1,0000.0,0005.89,0003.18,0002.26
2022-06-20 07:27:00,,0823.4,5.01,0.00,29.7,28.9,00.0,38.4,31.7,18.2,0000.0,0005.88,0003.17,0002.26
2022-06-20 07:28:00,,0823.3,4.99,0.00,29.7,28.9,00.0,38.5,31.7,18.4,0000.0,0005.92,0003.17,0002.26
2022-06-20 07:29:00,,0823.4,5.01,0.00,29.8,28.9,00.0,38.5,31.7,18.4,0000.0,0006.04,0003.20,0002.26
2022-06-20 07:30:00,,0823.4,5.00,0.00,29.8,29.0,00.0,38.5,31.8,18.5,0000.0,0005.80,0003.19,0002.26
2022-06-20 07:31:00,,0823.4,5.00,0.00,29.8,29.0,00.0,38.5,31.7,18.7,0000.0,0005.81,0003.20,0002.27
2022-06-20 07:32:00,,0823.4,5.00,0.00,29.8,28.7,00.0,38.5,31.7,18.9,0000.0,0006.10,0003.23,0002.27
2022-06-20 07:33:00,,0823.4,5.00,0.00,29.8,27.9,00.0,38.5,31.5,19.0,0000.0,0006.37,0003.24,0002.29
2022-06-20 07:34:00,,0823.4,5.01,0.00,29.7,27.5,00.0,38.4,31.4,19.1,0000.0,0006.43,0003.27,0002.29
2022-06-20 07:35:00,,0823.4,4.99,0.00,29.7,27.4,00.0,38.4,31.3,19.3,0000.0,0006.23,0003.28,0002.29
2022-06-20 07:36:00,,0823.4,4.99,0.00,29.6,27.5,00.0,38.4,31.3,19.5,0000.0,0006.35,0003.34,0002.29
2022-06-20 07:37:00,,0823.4,5.00,0.00,29.6,27.6,00.0,38.4,31.3,19.7,0000.0,0006.47,0003.36,0002.30
2022-06-20 07:38:00,,0823.5,4.99,0.00,29.6,27.8,00.0,38.4,31.4,19.8,0000.0,0006.25,0003.33,0002.32
2022-06-20 07:39:00,,0823.4,5.00,0.00,29.5,27.9,00.0,38.4,31.4,19.9,0000.0,0006.12,0003.31,0002.33
2022-06-20 07:40:00,,0823.4,5.00,0.00,29.6,28.1,00.0,38.4,31.4,20.1,0000.0,0005.92,0003.27,0002.32
2022-06-20 07:41:00,,0823.4,5.00,0.00,29.6,28.2,00.0,38.4,31.4,20.2,0000.0,0005.88,0003.27,0002.33
2022-06-20 07:42:00,,0823.4,5.00,0.00,29.6,28.3,00.0,38.4,31.4,20.2,0000.0,0005.99,0003.28,0002.33
2022-06-20 07:43:00,,0823.4,5.00,0.00,29.6,28.4,00.0,38.4,31.5,20.3,0000.0,0005.92,0003.27,0002.34
2022-06-20 07:44:00,,0823.4,5.01,0.00,29.6,28.5,00.0,38.4,31.5,20.3,0000.0,0005.61,0003.24,0002.33
2022-06-20 07:45:00,,0823.4,5.01,0.00,29.6,28.6,00.0,38.4,31.5,20.5,0000.0,0005.32,0003.19,0002.31
2022-06-20 07:46:00,,0823.4,5.00,0.00,29.7,28.6,00.0,38.4,31.6,20.6,0000.0,0005.37,0003.20,0002.31
2022-06-20 07:47:00,,0823.4,4.99,0.00,29.7,28.7,00.0,38.4,31.6,20.7,0000.0,0005.22,0003.15,0002.31
2022-06-20 07:48:00,,0823.5,5.00,0.00,29.7,28.7,00.0,38.5,31.6,20.9,0000.0,0005.00,0003.09,0002.31
2022-06-20 07:49:00,,0823.5,5.01,0.00,29.7,28.8,00.0,38.5,31.7,21.0,0000.0,0005.08,0003.11,0002.29
2022-06-20 07:50:00,,0823.6,5.00,0.00,29.7,28.8,00.0,38.5,31.7,21.1,0000.0,0005.13,0003.12,0002.28
2022-06-20 07:51:00,,0823.6,5.00,0.00,29.8,28.9,00.0,38.5,31.7,21.2,0000.0,0005.20,0003.15,0002.29
2022-06-20 07:52:00,,0823.6,5.01,0.00,29.8,28.9,00.0,38.5,31.7,21.3,0000.0,0005.36,0003.17,0002.28
2022-06-20 07:53:00,,0823.6,4.99,0.00,29.8,29.0,00.0,38.6,31.8,21.3,0000.0,0005.35,0003.18,0002.29
2022-06-20 07:54:00,,0823.6,5.00,0.00,29.8,28.9,00.0,38.6,31.7,21.3,0000.0,0005.05,0003.15,0002.28
2022-06-20 07:55:00,,0823.6,5.01,0.00,29.8,28.2,00.0,38.5,31.6,21.4,0000.0,0005.15,0003.15,0002.30
2022-06-20 07:56:00,,0823.6,5.00,0.00,29.7,27.6,00.0,38.5,31.4,21.5,0000.0,0005.38,0003.15,0002.31
2022-06-20 07:57:00,,0823.7,4.99,0.00,29.7,27.4,00.0,38.4,31.3,21.7,0000.0,0005.20,0003.11,0002.31
2022-06-20 07:58:00,,0823.7,4.99,0.00,29.6,27.5,00.0,38.4,31.3,21.8,0000.0,0004.99,0003.07,0002.31
2022-06-20 07:59:00,,0823.7,5.00,0.00,29.6,27.6,00.0,38.4,31.3,21.9,0000.0,0005.10,0003.11,0002.31
